Location: Banios
(43.0451°N, 0.2335°E)
Time: 03:14:17
(UTC+00:00)

USA 238 DEB - Pass Details

Date: 25 January 2021
Orbit: 992 x 1220 km, 63.4° (Epoch: 25 February)

Event Time Altitude Azimuth Distance (km) Brightness Sun altitude
Rises 05:28:47 0° 206° (SSW) 3,700 6.4 -20.4°
Reaches altitude 10° 05:31:20 10° 204° (SSW) 2,766 5.7 -20.0°
Maximum altitude 05:37:46 70° 122° (ESE) 1,089 3.9 -18.8°
Drops below altitude 10° 05:44:33 10° 40° (NE) 2,902 6.4 -17.6°
Sets 05:47:16 0° 38° (NE) 3,895 7.0 -17.1°
